Regional Weather Roundup
Issued by NWS

Home | Current Version | Previous Version | Graphics & Text | Print | Product List | Glossary On
Versions: 1 2 3 4 5 6 7 8 9 10 11 12 13 14 15 16 17 18 19 20 21 22 23 24 25 26 27 28 29 30 31 32 33 34 35 36 37 38 39 40 41 42 43 44 45 46 47 48 49 50
000
ASUS45 KCYS 220210
RWRWY

WYOMING REGIONAL WEATHER ROUNDUP
NATIONAL WEATHER SERVICE CHEYENNE WY
800 PM MDT SUN MAY 21 2017

NOTE:  "FAIR" INDICATES FEW OR NO CLOUDS BELOW 12,000 FEET
WITH NO SIGNIFICANT WEATHER AND/OR OBSTRUCTIONS TO VISIBILITY.

WYZ001-220300-
YELLOWSTONE NATIONAL PARK

CITY           SKY/WX    TMP DP  RH WIND       PRES   REMARKS
LK YELLOWSTONE   N/A     48  21  34 MISG      30.33R
W YELLOWSTONE  NOT AVBL

$$
WYZ002>013-054>058-071-098>099-220300-
NORTHERN WYOMING

CITY           SKY/WX    TMP DP  RH WIND       PRES   REMARKS
JACKSON        NOT AVBL
CODY           FAIR      57  33  40 NE7       30.21S
GREYBULL       FAIR      65  25  22 N15       30.14R
WORLAND        FAIR      61  31  32 N10       30.16R
SHERIDAN       FAIR      56  41  57 NW7       30.16S
BUFFALO        FAIR      55  34  45 NW13G23   30.19S
GILLETTE       FAIR      55  35  47 N23G29    30.15R
HULETT         CLOUDY    52  39  62 NW5       30.15R
NEWCASTLE      RAIN      50  37  62 N9        30.17R

$$
WYZ014>020-022>026-101>103-220300-
CENTRAL WYOMING

CITY           SKY/WX    TMP DP  RH WIND       PRES   REMARKS
BIG PINEY      FAIR      51  37  58 SE14      30.26R
PINEDALE       FAIR      46  36  66 S12       30.27R
DUBOIS         FAIR      46  32  57 SE13      30.26R
LANDER         MOCLDY    54  35  48 SW3       30.22R
RIVERTON       FAIR      57  36  45 CALM      30.23R
CASPER         MOCLDY    51  38  60 N13       30.23R
DOUGLAS        FAIR      53  35  50 N9        30.20R

$$
WYZ021-027>030-104>119-220300-
SOUTHERN WYOMING

CITY           SKY/WX    TMP DP  RH WIND       PRES   REMARKS
EVANSTON       FAIR      50  37  61 N12       30.27R
ROCK SPRINGS   LGT RAIN  44  38  79 NE14      30.28R
DIXON            N/A     48  40  72 E12       30.28F
RAWLINS        CLOUDY    50  37  61 SE6       30.26R
SARATOGA       LGT RAIN  46  37  71 SW5       30.28R
LARAMIE        CLOUDY    44  36  73 W8        30.25R
CHEYENNE       CLOUDY    47  39  74 NW7       30.23S
TORRINGTON     CLOUDY    53  38  56 NW7       30.16R
PINE BLUFFS    CLOUDY    52  39  62 NW8G22    30.21R

$$



USA.gov is the U.S. government's official web portal to all federal, state and local government web resources and services.